Location: Duac?
(36.9744°N, 30.6500°E)
Time: 00:50:10
(UTC+00:00)

Cosmos 1656 - Pass Details

Date: 05 August 2024
Orbit: 796 x 849 km, 71.1° (Epoch: 18 September)

Event Time Altitude Azimuth Distance (km) Brightness Sun altitude
Exits shadow 20:29:36 50° 302° (WNW) 1,039 4.3 -32.0°
Drops below altitude 10° 20:34:50 10° 11° (N) 2,434 6.7 -32.5°
Sets 20:37:23 0° 17° (NNE) 3,380 7.5 -32.7°
